KA7BMX Weather Reports


time (UTC)temp
F
wind
direction
speed
knots
gust
knots
rain 1hr
in
rain 24hr
in
rain mn
in
humidity
%
barometer
mb
20260506234921 76 999 1.7 0.0 0.00 0.00 0.00 35
20260506231921 77 999 1.7 0.0 0.00 0.00 0.00 35
20260506224921 78 999 1.7 0.0 0.00 0.00 0.00 32
20260506221921 78 999 3.5 0.0 0.00 0.00 0.00 34
20260506214921 82 999 1.7 0.0 0.00 0.00 0.00 33
20260506211921 81 999 1.7 0.0 0.00 0.00 0.00 34
20260506204921 80 999 1.7 0.0 0.00 0.00 0.00 37
20260506201921 80 999 0.9 0.0 0.00 0.00 0.00 36
20260506194921 80 999 0.9 0.0 0.00 0.00 0.00 38
20260506191921 80 999 2.6 0.0 0.00 0.00 0.00 37
20260506184921 78 999 2.6 0.0 0.00 0.00 0.00 38
20260506181921 78 999 1.7 0.0 0.00 0.00 0.00 38
20260506174921 79 999 0.9 0.0 0.00 0.00 0.00 37
20260506171922 79 999 0.9 0.0 0.00 0.00 0.00 36
20260506164921 79 999 0.9 0.0 0.00 0.00 0.00 34
20260506161921 75 999 2.6 0.0 0.00 0.00 0.00 33
20260506154921 75 999 0.9 0.0 0.00 0.00 0.00 31
20260506151921 74 999 1.7 0.0 0.00 0.00 0.00 31
20260506144921 68 999 1.7 0.0 0.00 0.00 0.00 36
20260506141921 64 999 0.9 0.0 0.00 0.00 0.00 40
20260506134921 61 999 0.0 0.0 0.00 0.00 0.00 45
20260506131921 55 999 0.0 0.0 0.00 0.00 0.00 56
20260506124921 49 999 0.0 0.0 0.00 0.00 0.00 60
20260506121921 47 999 0.9 0.0 0.00 0.00 0.00 64
20260506114921 47 999 0.0 0.0 0.00 0.00 0.00 65
20260506111921 48 999 0.0 0.0 0.00 0.00 0.00 63
20260506104921 49 999 0.0 0.0 0.00 0.00 0.00 63
20260506101921 50 999 0.0 0.0 0.00 0.00 0.00 61
20260506094921 50 999 0.0 0.0 0.00 0.00 0.00 60
20260506091921 51 999 0.9 0.0 0.00 0.00 0.00 58
20260506084921 51 999 0.0 0.0 0.00 0.00 0.00 58
20260506081921 52 999 0.0 0.0 0.00 0.00 0.00 58
20260506071921 55 999 0.0 0.0 0.00 0.00 0.00 49
20260506061921 56 999 0.0 0.0 0.00 0.00 0.00 48
20260506044921 59 999 0.0 0.0 0.00 0.00 0.00 41
20260506041921 60 999 0.0 0.0 0.00 0.00 0.00 40
20260506031922 64 999 0.0 0.0 0.00 0.00 0.00 37
20260506021922 71 999 0.0 0.0 0.00 0.00 0.00 29
20260506014921 71 999 0.9 0.0 0.00 0.00 0.00 29
20260506011921 72 999 0.0 0.0 0.00 0.00 0.00 28
20260506004921 74 999 1.7 0.0 0.00 0.00 0.00 26
20260506001921 74 999 1.7 0.0 0.00 0.00 0.00 26